Location: Bosdarros
(43.2167°N, 0.3667°W)
Time: 16:07:09
(UTC+00:00)

Meteor 2-15 Rocket - Pass Details

Date: 22 April 2021
Orbit: 939 x 956 km, 82.5° (Epoch: 12 May)

Event Time Altitude Azimuth Distance (km) Brightness Sun altitude
Exits shadow 21:43:55 67° 156° (SSE) 1,014 4.3 -26.2°
Maximum altitude 21:44:42 78° 96° (E) 963 4.3 -26.3°
Drops below altitude 10° 21:50:46 10° 11° (N) 2,663 7.3 -27.0°
Sets 21:53:16 0° 10° (N) 3,611 8.1 -27.2°
